Regional Weather Roundup
Issued by NWS

Home | Current Version | Previous Version | Text Only | Print | Product List | Glossary On
Versions: 1 2 3 4 5 6 7 8 9 10 11 12 13 14 15 16 17 18 19 20 21 22 23 24 25 26 27 28 29 30 31 32 33 34 35 36 37 38 39 40 41 42 43 44 45 46 47 48 49 50
000
ASUS43 KTOP 010008
RWRKS

WEATHER ROUNDUP FOR KANSAS
NATIONAL WEATHER SERVICE GOODLAND KS
700 PM CDT FRI SEP 30 2016

NOTE:  "FAIR" INDICATES FEW OR NO CLOUDS BELOW 12,000 FEET WITH NO
SIGNIFICANT WEATHER AND/OR OBSTRUCTIONS TO VISIBILITY.

KSZ001>006-013>018-027>032-041>047-010100-
NORTHWEST KANSAS

CITY           SKY/WX    TMP DP  RH WIND       PRES   REMARKS
GOODLAND       CLEAR     70  46  42 SE10      30.13R
6HR MIN TEMP:  69; 6HR MAX TEMP:  75;

HAYS           PTCLDY    68  43  40 SE8       30.14S
HILL CITY      PTCLDY    65  49  56 E7        30.14S
6HR MIN TEMP:  65; 6HR MAX TEMP:  73;

RUSSELL        MOCLDY    69  46  43 SE8       30.13S
6HR MIN TEMP:  68; 6HR MAX TEMP:  74;

$$

KSZ061>065-074>080-084>089-010100-
SOUTHWEST KANSAS

CITY           SKY/WX    TMP DP  RH WIND       PRES   REMARKS
DODGE CITY     CLEAR     71  46  40 SE9       30.13R
6HR MIN TEMP:  71; 6HR MAX TEMP:  78;

ELKHART          N/A     73  46  38 SE22        N/A
GARDEN CITY    CLEAR     72  47  40 SE13      30.10R
6HR MIN TEMP:  70; 6HR MAX TEMP:  79;

GREAT BEND     PTCLDY    70  43  37 SE8       30.13S
LIBERAL        CLOUDY    73  46  38 SE15      30.10S
PRATT          CLEAR     67  45  45 SE7       30.14S
6HR MIN TEMP:  66; 6HR MAX TEMP:  71;

$$

KSZ066>073-081>083-090>101-010100-
SOUTHEAST KANSAS

CITY           SKY/WX    TMP DP  RH WIND       PRES   REMARKS
CHANUTE        CLEAR     69  52  54 NE3       30.12S
6HR MIN TEMP:  69; 6HR MAX TEMP:  77;

COFFEYVILLE    CLOUDY    70  50  49 N5        30.11S
6HR MIN TEMP:  70; 6HR MAX TEMP:  77;

HUTCHINSON     PTCLDY    67  50  54 SE5       30.14S
6HR MIN TEMP:  67; 6HR MAX TEMP:  76;

MEDICINE LODGE   N/A     69  47  45 E5        30.13S
NEWTON         PTCLDY    67  51  56 CALM      30.15S
PARSONS        CLEAR     62  55  77 CALM      30.13R
6HR MIN TEMP:  62; 6HR MAX TEMP:  77;

WICHITA INTL   MOCLDY    69  51  52 S3        30.13S
6HR MIN TEMP:  69; 6HR MAX TEMP:  75;

WICHITA JABRA  PTCLDY    66  54  65 CALM      30.13F
6HR MIN TEMP:  66; 6HR MAX TEMP:  74;

WICHITA MCCONL CLOUDY    70  46  42 E2        30.13S
WINFIELD       PTCLDY    68  53  58 SW5       30.14R
6HR MIN TEMP:  68; 6HR MAX TEMP:  75;

$$

KSZ007>012-019>026-033>040-048>060-102>105-010100-
NORTHEAST KANSAS

CITY           SKY/WX    TMP DP  RH WIND       PRES   REMARKS
CONCORDIA      MOCLDY    67  51  56 NE5       30.15S
6HR MIN TEMP:  67; 6HR MAX TEMP:  74;

EMPORIA        PTCLDY    67  51  56 NE3       30.13F
6HR MIN TEMP:  66; 6HR MAX TEMP:  75;

LAWRENCE       CLEAR     63  53  70 N5        30.12F
6HR MIN TEMP:  63; 6HR MAX TEMP:  76;

MANHATTAN      PTCLDY    68  52  56 N3        30.14S
6HR MIN TEMP:  67; 6HR MAX TEMP:  76;

MARYSVILLE     CLOUDY    66  50  55 CALM      30.15S
OLATHE IND     CLEAR     65  49  56 NW5       30.13S
6HR MIN TEMP:  64; 6HR MAX TEMP:  74;

OLATHE EXE     CLEAR     67  47  48 N5        30.12F
6HR MIN TEMP:  67; 6HR MAX TEMP:  74;

SALINA         PTCLDY    70  49  47 E6        30.14F
6HR MIN TEMP:  70; 6HR MAX TEMP:  75;

TOPEKA BILLARD CLEAR     65  54  67 CALM      30.13S
6HR MIN TEMP:  65; 6HR MAX TEMP:  75;

TOPEKA FORBES  CLEAR     66  54  65 CALM      30.13F
6HR MIN TEMP:  66; 6HR MAX TEMP:  76;

$$




USA.gov is the U.S. government's official web portal to all federal, state and local government web resources and services.